Agana Heights, GU

7:42 PM ChST on March 29, 2015 (GMT +1000)
Maite | | Change Station
CLOSE
Current Station
Personal Weather Station
Location: Maite, GU
Elevation: 140 ft
Nearby Weather Stations

Elev 140 ft 13.48 °N, 144.76 °E | Updated 31 seconds ago

Partly Cloudy
Partly Cloudy
80.8 °F
Feels Like 87 °F
N
4.0
Wind Variable Wind from ENE
Gusts 12.0 mph

Today
High -- | Low -- °F
--% Chance of Precip.
Yesterday
High -- | Low -- °F
Precip. -- in
6:19 AM 6:32 PM
Waxing Gibbous, 70% visible
Pressure 29.91 in
Visibility 10.0 miles
Clouds Few 2100 ft
Heat Index 87 °F
Dew Point 75 °F
Humidity 83%
Rainfall 0.02 in
Snow Depth Not available.
UV 0.0 out of 12
Pollen Not available.
Air Quality Not available.
Flu Activity Not available.
METAR PGUM 290854Z 06011KT 10SM FEW021 27/23 A2993 RMK AO2 SLP126 T02720228 53015

More Conditions Fewer Conditions

Pressure 29.91 in
Visibility 10.0 miles
Clouds Few 2100 ft
Heat Index 87 °F
Dew Point 75 °F
Humidity 83%
Rainfall 0.02 in
Snow Depth Not available.
UV 0.0 out of 12
Pollen Not available.
Air Quality Not available.
Flu Activity Not available.
METAR PGUM 290854Z 06011KT 10SM FEW021 27/23 A2993 RMK AO2 SLP126 T02720228 53015

More Conditions Fewer Conditions

10-Day Weather Forecast

Almanac

Astronomy

Mar. 29, 2015 Rise Set
Actual Time
Civil Twilight
Nautical Twilight
Astronomical Twilight
Moon
Length of Visible Light
Length of Day
Tomorrow will be .
, % of the Moon is Illuminated

Today's Extremes

State Highs State Lows

Community

WunderPhotos

Upload Photos

1,809,199 photos uploaded!

WunderBlogs® & News

Nearby

Air Quality

  Air Quality AQ Index Pollutant
Not available.

Snow Depth

Station Depth Elevation

Earthquake Activity

City Distance Mag. Time & Date
Minimum magnitude displayed is 2.5.

Coastal Water Temperatures

Place Temperature

Stations

Nearby Weather Stations

Station Location Temp. Windchill Dew Point Humidity Wind Precip. Elev Updated Type